FW3671 Weather Reports


Display with metric or nautical units.
time (UTC)temp
F
wind
direction
speed
MPH
gust
MPH
rain 1hr
in
rain 24hr
in
rain mn
in
humidity
%
barometer
mb
20260506160841 51 324 10.0 15.0 0.00 0.13 0.13 38 1019.1
20260506160337 51 324 10.0 15.0 0.00 0.13 0.13 38 1019.2
20260506155836 51 324 10.0 15.0 0.00 0.13 0.13 39 1019.1
20260506155332 51 324 10.0 15.0 0.00 0.13 0.13 40 1018.9
20260506153444 50 324 10.0 15.0 0.00 0.13 0.13 43 1018.8
20260506152942 50 324 10.0 15.0 0.00 0.13 0.13 43 1018.6
20260506152439 49 324 10.0 15.0 0.00 0.13 0.13 43 1018.9
20260506151937 48 324 10.0 15.0 0.00 0.13 0.13 44 1018.6
20260506151434 48 324 10.0 21.0 0.00 0.13 0.13 45 1018.6
20260506150932 48 7 13.0 19.0 0.00 0.13 0.13 48 1018.3
20260506150427 47 338 13.0 24.0 0.00 0.13 0.13 45 1018.4
20260506145925 47 333 14.0 23.0 0.00 0.13 0.13 52 1018.3
20260506145421 47 2 9.0 21.0 0.02 0.13 0.13 52 1018.3
20260506144919 46 313 14.0 24.0 0.00 0.13 0.13 55 1018.4
20260506144415 46 307 7.0 14.0 0.00 0.13 0.13 55 1018.2
20260506143914 45 9 9.0 13.0 0.00 0.13 0.13 58 1018.2
20260506143410 44 3 13.0 14.0 0.00 0.13 0.13 62 1017.9
20260506142908 44 0 9.0 13.0 0.00 0.13 0.13 63 1018.1
20260506142406 43 347 4.0 10.0 0.00 0.13 0.13 64 1017.9
20260506141904 42 7 5.0 10.0 0.00 0.13 0.13 67 1017.9
20260506141402 41 347 4.0 4.0 0.00 0.13 0.13 73 1018.2
20260506140900 41 295 6.0 13.0 0.00 0.13 0.13 75 1018.1
20260506140356 40 258 5.0 5.0 0.00 0.13 0.13 81 1017.9
20260506135853 40 209 2.0 4.0 0.00 0.13 0.13 83 1018.1
20260506135350 39 91 3.0 3.0 0.00 0.13 0.13 83 1017.8
20260506134846 39 258 0.0 3.0 0.00 0.13 0.13 84 1018.1
20260506134343 39 126 3.0 4.0 0.00 0.13 0.13 83 1017.8
20260506133840 39 150 1.0 2.0 0.00 0.13 0.13 83 1017.6
20260506133336 39 204 3.0 4.0 0.00 0.13 0.13 82 1017.8
20260506132833 39 229 2.0 4.0 0.00 0.13 0.13 81 1017.7
20260506132330 39 275 2.0 5.0 0.00 0.13 0.13 82 1017.6
20260506131828 39 245 2.0 5.0 0.00 0.13 0.13 82 1017.6
20260506131324 39 229 6.0 7.0 0.00 0.13 0.13 84 1017.3
20260506130822 39 169 3.0 4.0 0.00 0.13 0.13 84 1017.3
20260506130318 38 135 7.0 8.0 0.00 0.13 0.13 85 1017.4
20260506125816 39 132 4.0 5.0 0.00 0.13 0.13 85 1017.0
20260506125314 39 142 2.0 3.0 0.00 0.13 0.13 85 1017.0
20260506124813 39 186 3.0 5.0 0.00 0.13 0.13 85 1017.1
20260506124309 39 173 2.0 4.0 0.00 0.13 0.13 85 1016.9
20260506123807 39 222 6.0 7.0 0.00 0.13 0.13 85 1016.8
20260506123305 39 151 2.0 4.0 0.00 0.13 0.13 84 1016.7
20260506122801 39 213 3.0 5.0 0.00 0.13 0.13 84 1016.8
20260506122259 39 173 1.0 3.0 0.00 0.13 0.13 83 1016.8
20260506121757 39 218 4.0 5.0 0.00 0.13 0.13 84 1016.8
20260506121253 40 143 2.0 4.0 0.00 0.13 0.13 84 1016.6
20260506120751 40 209 3.0 5.0 0.00 0.13 0.13 83 1016.8
20260506120248 40 190 5.0 10.0 0.00 0.13 0.13 84 1016.4
20260506115746 41 227 6.0 10.0 0.00 0.13 0.13 84 1016.6
20260506115244 41 196 2.0 9.0 0.00 0.13 0.13 85 1016.2
20260506114741 41 250 11.0 14.0 0.00 0.13 0.13 85 1016.4
20260506114239 42 220 2.0 7.0 0.00 0.13 0.13 88 1016.4
20260506113737 42 159 4.0 7.0 0.00 0.13 0.13 89 1016.1
20260506113234 42 160 4.0 6.0 0.00 0.13 0.13 89 1016.2
20260506112730 41 163 2.0 4.0 0.00 0.13 0.13 89 1016.2
20260506112228 41 119 3.0 4.0 0.00 0.13 0.13 89 1016.3
20260506111725 41 102 4.0 5.0 0.00 0.13 0.13 88 1016.2
20260506111224 41 268 3.0 4.0 0.00 0.13 0.13 89 1016.1
20260506110721 41 208 2.0 5.0 0.00 0.13 0.13 89 1015.9
20260506110218 41 193 1.0 6.0 0.00 0.13 0.13 89 1016.1
20260506105714 41 204 5.0 11.0 0.00 0.13 0.13 89 1015.6
20260506105211 41 79 1.0 3.0 0.00 0.13 0.13 89 1016.1
20260506104710 41 201 4.0 5.0 0.00 0.13 0.13 89 1015.9
20260506104207 41 185 4.0 6.0 0.00 0.13 0.13 89 1015.7
20260506103703 41 201 2.0 5.0 0.00 0.13 0.13 90 1015.4
20260506103200 42 194 4.0 7.0 0.00 0.13 0.13 90 1015.9
20260506102659 42 222 7.0 8.0 0.00 0.13 0.13 90 1015.6
20260506102156 42 229 3.0 6.0 0.00 0.13 0.13 90 1015.6
20260506101652 42 213 8.0 9.0 0.00 0.13 0.13 90 1015.6
20260506101149 42 206 4.0 9.0 0.00 0.13 0.13 90 1015.4
20260506100648 42 261 3.0 9.0 0.00 0.13 0.13 90 1015.3
20260506100145 43 237 9.0 11.0 0.00 0.13 0.13 90 1015.1
20260506095644 43 241 4.0 11.0 0.00 0.13 0.13 90 1014.9
20260506095140 44 248 8.0 12.0 0.00 0.13 0.13 90 1014.7
20260506094637 44 242 7.0 11.0 0.00 0.13 0.13 90 1014.8
20260506094135 44 265 5.0 8.0 0.00 0.13 0.13 89 1014.8
20260506093634 44 315 9.0 10.0 0.00 0.13 0.13 89 1014.5
20260506093130 44 349 2.0 9.0 0.00 0.13 0.13 88 1014.6
20260506092628 45 241 10.0 13.0 0.02 0.13 0.13 87 1014.4
20260506092125 45 218 5.0 11.0 0.05 0.13 0.13 86 1013.9
20260506091623 45 207 6.0 6.0 0.09 0.12 0.12 86 1014.1
20260506091120 45 189 5.0 6.0 0.26 0.12 0.12 86 1014.1
20260506090618 45 111 1.0 5.0 0.40 0.11 0.11 84 1014.5
20260506090114 46 32 11.0 21.0 0.21 0.07 0.07 83 1014.7
20260506085611 47 344 11.0 19.0 0.17 0.04 0.04 83 1014.5
20260506085108 48 290 12.0 14.0 0.19 0.03 0.03 79 1014.0
20260506084604 48 61 1.0 2.0 0.05 0.01 0.01 72 1013.6
20260506084101 49 0 2.0 2.0 0.00 0.00 0.00 70 1013.6
20260506083558 49 180 2.0 3.0 0.00 0.00 0.00 70 1013.1
20260506083055 49 121 10.0 10.0 0.00 0.00 0.00 70 1012.6
20260506082552 48 129 7.0 10.0 0.00 0.00 0.00 71 1012.6
20260506082048 48 146 9.0 10.0 0.00 0.00 0.00 71 1012.5
20260506081546 48 133 11.0 16.0 0.00 0.00 0.00 72 1012.5
20260506081043 48 124 9.0 14.0 0.00 0.00 0.00 71 1012.6
20260506080541 48 117 9.0 12.0 0.00 0.00 0.00 72 1012.7
20260506073524 50 110 0.0 1.0 0.00 0.00 0.00 69 1013.1
20260506073021 50 312 1.0 2.0 0.00 0.00 0.00 67 1013.2
20260506072518 50 306 3.0 4.0 0.00 0.00 0.00 67 1013.1
20260506072016 50 259 3.0 8.0 0.00 0.00 0.00 66 1013.2
20260506071514 51 356 3.0 6.0 0.00 0.00 0.00 63 1013.2
20260506071011 51 305 2.0 3.0 0.00 0.00 0.00 62 1013.1
20260506070508 51 198 1.0 3.0 0.00 0.00 0.00 62 1013.1
20260506062445 51 187 5.0 7.0 0.00 0.00 0.00 62 1012.4
20260506061941 51 125 11.0 13.0 0.00 0.00 0.00 62 1012.2
20260506061438 52 121 13.0 14.0 0.00 0.00 0.00 61 1012.2
20260506060936 52 135 3.0 6.0 0.00 0.00 0.00 58 1012.2
20260506060434 52 101 5.0 7.0 0.00 0.00 0.00 57 1012.3
20260506051406 52 154 8.0 15.0 0.00 0.07 0.07 56 1011.2
20260506050903 52 163 7.0 13.0 0.00 0.07 0.07 56 1011.2
20260506050400 52 152 6.0 15.0 0.00 0.07 0.07 56 1011.0
20260506044851 52 144 11.0 15.0 0.00 0.07 0.07 57 1011.1
20260506044349 52 146 11.0 17.0 0.00 0.07 0.07 57 1010.9
20260506043845 52 151 7.0 16.0 0.00 0.07 0.07 57 1011.0
20260506043342 52 161 8.0 19.0 0.00 0.07 0.07 57 1011.1
20260506042841 52 154 11.0 19.0 0.00 0.07 0.07 58 1011.2
20260506042340 52 140 9.0 19.0 0.00 0.07 0.07 58 1011.4
20260506041838 52 156 12.0 18.0 0.00 0.07 0.07 57 1011.2
20260506041335 52 160 10.0 17.0 0.00 0.07 0.07 57 1011.1
20260506040832 52 150 9.0 20.0 0.00 0.07 0.07 56 1011.2
20260506040329 52 129 10.0 14.0 0.00 0.07 0.07 56 1011.1
20260506035825 52 128 10.0 16.0 0.00 0.07 0.07 57 1011.0
20260506035323 52 124 11.0 14.0 0.00 0.07 0.07 59 1011.2
20260506034820 52 130 9.0 15.0 0.00 0.07 0.07 59 1011.1
20260506034317 52 123 10.0 15.0 0.00 0.07 0.07 59 1011.2
20260506033814 52 118 12.0 15.0 0.00 0.07 0.07 59 1011.2
20260506033311 52 120 14.0 17.0 0.00 0.07 0.07 59 1011.0
20260506032808 52 133 8.0 19.0 0.00 0.07 0.07 59 1011.0
20260506032306 52 131 8.0 13.0 0.00 0.07 0.07 59 1011.1
20260506031801 52 148 11.0 16.0 0.00 0.07 0.07 60 1010.9
20260506031258 52 130 13.0 16.0 0.00 0.07 0.07 59 1010.9
20260506030756 52 146 5.0 15.0 0.00 0.07 0.07 59 1010.9
20260506030254 52 127 10.0 16.0 0.00 0.07 0.07 60 1010.9
20260506025751 52 148 10.0 15.0 0.00 0.07 0.07 59 1010.9
20260506025247 52 161 12.0 15.0 0.00 0.07 0.07 60 1010.8
20260506024744 52 157 9.0 15.0 0.00 0.07 0.07 59 1010.8
20260506024241 53 150 9.0 17.0 0.00 0.07 0.07 58 1010.7
20260506023737 53 140 10.0 15.0 0.00 0.07 0.07 58 1010.5
20260506023234 53 148 5.0 13.0 0.00 0.07 0.07 57 1010.7
20260506022731 54 147 9.0 19.0 0.00 0.07 0.07 56 1010.4
20260506022229 54 148 11.0 15.0 0.00 0.07 0.07 54 1010.4
20260506021726 55 160 7.0 12.0 0.00 0.07 0.07 52 1010.5
20260506021223 56 172 8.0 15.0 0.00 0.07 0.07 51 1010.4
20260506020720 58 149 3.0 15.0 0.00 0.07 0.07 48 1010.2
20260506020218 58 180 9.0 13.0 0.00 0.07 0.07 48 1010.2
20260506015715 58 144 11.0 17.0 0.00 0.07 0.07 47 1010.4
20260506015213 59 130 7.0 17.0 0.00 0.07 0.07 46 1010.2
20260506014710 59 146 8.0 15.0 0.00 0.07 0.07 45 1010.5
20260506014205 60 110 3.0 9.0 0.00 0.07 0.07 44 1010.4
20260506013703 60 178 4.0 14.0 0.00 0.07 0.07 43 1010.3
20260506013200 60 146 4.0 11.0 0.00 0.07 0.07 44 1010.3
20260506012656 61 163 4.0 10.0 0.00 0.07 0.07 43 1010.2
20260506012153 61 152 5.0 10.0 0.00 0.07 0.07 43 1010.1
20260506011651 61 144 7.0 14.0 0.00 0.07 0.07 42 1010.2
20260506011147 61 133 9.0 9.0 0.00 0.07 0.07 43 1010.2
20260506010646 61 147 9.0 13.0 0.00 0.07 0.07 42 1010.1
20260506010142 62 194 6.0 10.0 0.00 0.07 0.07 42 1010.0
20260506005639 63 189 4.0 13.0 0.00 0.07 0.07 40 1010.0
20260506005136 64 165 7.0 8.0 0.00 0.07 0.07 40 1010.3
20260506004632 65 156 5.0 5.0 0.00 0.07 0.07 38 1010.1
20260506004130 66 141 2.0 6.0 0.00 0.07 0.07 38 1010.3
20260506003626 65 62 2.0 3.0 0.00 0.07 0.07 40 1010.3
20260506003122 66 163 5.0 9.0 0.00 0.07 0.07 39 1010.1
20260506002618 65 183 1.0 6.0 0.00 0.07 0.07 40 1010.3
20260506002114 64 105 4.0 6.0 0.00 0.07 0.07 40 1010.1
20260506001610 64 121 1.0 7.0 0.00 0.07 0.07 42 1010.4
20260506001108 63 173 4.0 9.0 0.00 0.07 0.07 42 1010.2
20260506000605 62 130 3.0 8.0 0.00 0.07 0.07 43 1010.4
20260505235600 61 103 1.0 5.0 0.00 0.07 0.07 45 1010.2
20260505235057 59 116 2.0 6.0 0.00 0.07 0.07 47 1010.2
20260505234554 59 211 2.0 5.0 0.00 0.07 0.07 47 1010.4
20260505234050 59 116 0.0 6.0 0.00 0.07 0.07 47 1010.4
20260505233548 59 127 4.0 7.0 0.00 0.07 0.07 46 1010.4
20260505233045 60 65 3.0 4.0 0.00 0.07 0.07 45 1010.4
20260505232543 61 8 2.0 5.0 0.00 0.07 0.07 44 1010.7
20260505232041 62 23 3.0 4.0 0.00 0.07 0.07 43 1010.5
20260505231537 64 11 3.0 6.0 0.00 0.07 0.07 41 1010.7
20260505231036 62 4 3.0 4.0 0.00 0.07 0.07 44 1010.5
20260505230533 63 113 0.0 4.0 0.00 0.07 0.07 46 1010.7
20260505230029 60 226 4.0 8.0 0.00 0.07 0.07 46 1011.0
20260505225526 59 291 5.0 6.0 0.00 0.07 0.07 50 1010.5
20260505225022 58 16 1.0 5.0 0.00 0.07 0.07 48 1010.8
20260505224519 57 203 2.0 3.0 0.00 0.07 0.07 49 1010.8
20260505224017 57 280 4.0 5.0 0.00 0.07 0.07 50 1010.7
20260505223514 57 343 4.0 4.0 0.00 0.07 0.07 51 1010.8
20260505223010 57 346 3.0 6.0 0.00 0.07 0.07 49 1011.1
20260505222506 57 37 4.0 7.0 0.00 0.07 0.07 50 1011.4
20260505222002 56 261 2.0 8.0 0.00 0.07 0.07 51 1011.4
20260505221459 56 37 6.0 11.0 0.00 0.07 0.07 52 1011.2
20260505220956 55 272 3.0 6.0 0.00 0.07 0.07 53 1011.5
20260505220453 55 169 0.0 5.0 0.00 0.07 0.07 54 1011.7
20260505215951 55 147 5.0 11.0 0.00 0.07 0.07 51 1011.5
20260505215449 55 110 7.0 9.0 0.00 0.07 0.07 50 1011.5
20260505214946 55 108 8.0 10.0 0.00 0.07 0.07 52 1011.5
20260505214444 54 92 6.0 9.0 0.00 0.07 0.07 54 1011.5
20260505213941 54 105 9.0 13.0 0.00 0.07 0.07 52 1011.1
20260505213439 54 108 8.0 10.0 0.00 0.07 0.07 53 1011.5
20260505212935 54 127 4.0 9.0 0.00 0.07 0.07 54 1011.1
20260505212432 54 101 6.0 12.0 0.00 0.07 0.07 54 1011.2
20260505211928 54 120 7.0 10.0 0.00 0.07 0.07 52 1011.4
20260505211426 54 128 4.0 10.0 0.00 0.07 0.07 51 1011.4
20260505210922 54 142 10.0 12.0 0.00 0.07 0.07 49 1011.6
20260505210420 55 113 3.0 7.0 0.00 0.07 0.07 51 1011.6
20260505205916 55 115 4.0 7.0 0.00 0.07 0.07 50 1011.5
20260505205415 55 186 5.0 10.0 0.00 0.07 0.07 49 1011.6
20260505204911 55 121 3.0 9.0 0.00 0.07 0.07 52 1011.5
20260505204409 55 139 4.0 11.0 0.00 0.07 0.07 51 1011.8
20260505203906 55 137 6.0 11.0 0.00 0.07 0.07 48 1011.4
20260505203402 56 159 10.0 13.0 0.00 0.07 0.07 45 1011.6
20260505202859 56 147 11.0 15.0 0.00 0.07 0.07 47 1011.5
20260505202355 57 127 9.0 14.0 0.00 0.07 0.07 48 1011.5
20260505201852 56 163 11.0 13.0 0.00 0.07 0.07 47 1011.5
20260505201349 56 139 12.0 15.0 0.00 0.07 0.07 46 1011.6
20260505200847 57 120 8.0 13.0 0.00 0.07 0.07 46 1011.5
20260505200344 57 103 5.0 13.0 0.00 0.07 0.07 48 1011.5
20260505195839 56 184 9.0 16.0 0.00 0.07 0.07 48 1011.5
20260505195337 56 153 5.0 15.0 0.00 0.07 0.07 49 1011.5
20260505194834 55 155 16.0 18.0 0.00 0.07 0.07 50 1011.5
20260505194331 54 174 11.0 14.0 0.00 0.07 0.07 53 1011.5
20260505193826 53 131 16.0 17.0 0.00 0.07 0.07 54 1011.7
20260505193324 53 158 11.0 16.0 0.00 0.07 0.07 54 1011.7
20260505192822 53 124 10.0 22.0 0.00 0.07 0.07 52 1011.8
20260505192320 53 141 10.0 17.0 0.00 0.07 0.07 54 1011.6
20260505191817 53 135 9.0 17.0 0.00 0.07 0.07 54 1011.8
20260505191316 53 160 13.0 16.0 0.00 0.07 0.07 55 1011.5
20260505190812 53 129 11.0 14.0 0.00 0.07 0.07 55 1011.6
20260505190307 53 161 10.0 21.0 0.00 0.07 0.07 54 1011.9
20260505185803 53 135 5.0 17.0 0.00 0.07 0.07 55 1011.8
20260505185300 53 158 18.0 20.0 0.00 0.07 0.07 55 1011.7
20260505184756 53 123 16.0 26.0 0.00 0.07 0.07 54 1011.5
20260505184253 53 150 15.0 21.0 0.00 0.07 0.07 55 1011.7
20260505183750 52 141 18.0 26.0 0.00 0.07 0.07 54 1011.7
20260505183248 52 139 10.0 20.0 0.00 0.07 0.07 55 1011.8
20260505182744 52 152 17.0 25.0 0.00 0.07 0.07 55 1011.7
20260505182241 51 125 15.0 21.0 0.00 0.07 0.07 57 1011.8
20260505181737 51 136 9.0 25.0 0.00 0.07 0.07 57 1011.8
20260505181235 51 142 12.0 25.0 0.00 0.07 0.07 57 1011.9
20260505180731 51 133 26.0 28.0 0.00 0.07 0.07 58 1011.6
20260505180228 51 157 13.0 24.0 0.00 0.07 0.07 58 1011.8
20260505175724 51 140 15.0 29.0 0.00 0.07 0.07 58 1011.7
20260505175221 51 123 11.0 27.0 0.00 0.07 0.07 57 1011.7
20260505174717 51 136 15.0 21.0 0.00 0.07 0.07 59 1011.7
20260505174214 51 123 13.0 20.0 0.00 0.07 0.07 60 1011.8
20260505173710 51 155 10.0 26.0 0.00 0.07 0.07 60 1011.9
20260505173207 51 161 9.0 23.0 0.00 0.07 0.07 60 1011.8
20260505172704 51 129 21.0 21.0 0.00 0.07 0.07 60 1011.8
20260505172201 51 159 13.0 17.0 0.00 0.07 0.07 62 1011.9
20260505171700 50 124 18.0 25.0 0.00 0.07 0.07 62 1011.9
20260505171158 50 165 12.0 21.0 0.00 0.07 0.07 64 1012.0
20260505170655 50 142 15.0 21.0 0.00 0.07 0.07 66 1011.7
20260505170152 49 151 17.0 18.0 0.00 0.07 0.07 67 1011.8
20260505165652 49 138 15.0 24.0 0.00 0.07 0.07 66 1012.0
20260505165148 49 146 10.0 22.0 0.00 0.07 0.07 64 1011.8
20260505164643 50 124 8.0 21.0 0.00 0.07 0.07 64 1012.0
20260505164141 50 153 14.0 22.0 0.00 0.07 0.07 64 1011.8
20260505163639 50 138 12.0 24.0 0.00 0.07 0.07 64 1011.9
20260505163137 49 142 20.0 24.0 0.00 0.07 0.07 65 1011.6
20260505162634 49 156 4.0 21.0 0.00 0.07 0.07 64 1011.9
20260505162132 49 141 16.0 25.0 0.00 0.07 0.07 66 1011.7
20260505161629 49 138 12.0 25.0 0.00 0.07 0.07 64 1011.7
20260505161126 49 134 21.0 26.0 0.00 0.07 0.07 65 1011.8